Find Starlink 3047

NORAD ID: 49174 Int'l Des: 2021-082 Owner: SPXS Country: US Constellation: starlink decayed
LEOCIRCULAR
Vis

Historical Track — 30. Okt. 2025

3D-Globus wird geladen...

Über Starlink 3047

Beschreibung wird geladen...

Höhenverlauf

Loading altitude history...

Zweizeiliger Elementsatz

1 49174U 21082AW 25302.67357160 .06384653 43255-5 11967-2 0 9990
2 49174 69.9497 167.3418 0010648 227.7305 132.3019 16.31705443229923
Epoch: 29. Okt. 2025 • Age: 4360 hours

Aktueller Status

Position data unavailable
Startdatum 14. Sept. 2021
Alter 4.6 years
Verglühungsdatum 30. Okt. 2025
Typ internet

Technische Details

Klassifizierung Payload
Masse 297.00 kg
Trockenmasse 275.00 kg
Gesamtmasse 297.00 kg
Länge 0.20 m
Durchmesser 2.80 m
Spannweite 9.00 m
Form Box + pan
Hersteller SPXS
Bus-Typ Starlink
Phasenstatus Reentered
Besitzer/Staat SPXS/US

Most Searched